Regional Weather Roundup
Issued by NWS

Home | Current Version | Previous Version | Text Only | Print | Product List | Glossary Off
Versions: 1 2 3 4 5 6 7 8 9 10 11 12 13 14 15 16 17 18 19 20 21 22 23 24 25 26 27 28 29 30 31 32 33 34 35 36 37 38 39 40 41 42 43 44 45 46 47 48 49 50

000
ASUS45 KPSR 231100
RWRAZ

PRELIMINARY ARIZONA REGIONAL HOURLY WEATHER ROUNDUP
NATIONAL WEATHER SERVICE PHOENIX AZ
400 AM MST WED APR 23 2014

NOTE: FAIR INDICATES FEW OR NO CLOUDS BELOW 12,000 FEET WITH NO
SIGNIFICANT WEATHER AND/OR OBSTRUCTIONS TO VISIBILITY.

AZZ001>003-036-231200-
NORTHWEST ARIZONA

CITY           SKY/WX    TMP DP  RH WIND       PRES   REMARKS
KINGMAN        CLOUDY    47   3  16 SE7       29.82S
$$

AZZ004>008-015-016-018-231200-
NORTH CENTRAL ARIZONA

CITY           SKY/WX    TMP DP  RH WIND       PRES   REMARKS
GRAND CANYON   PTCLDY    34   9  35 SW7       29.87F WCI  28
WILLIAMS       PTCLDY    37  19  48 SE7       29.96F WCI  32
PRESCOTT       CLEAR     44  21  40 S8        29.86F
FLAGSTAFF      CLEAR     45  18  34 W9        29.88F
PAYSON         CLEAR     54  27  35 CALM      29.89S
PAGE           CLEAR     56  10  16 W3        29.80R
$$

AZZ009>014-017-231200-
NORTHEAST ARIZONA

CITY           SKY/WX    TMP DP  RH WIND       PRES   REMARKS
WINSLOW        NOT AVBL
SAINT JOHNS    CLEAR     45  23  42 W3        29.88R
WINDOW ROCK    CLEAR     47  26  44 S6        29.90S
SHOW LOW       CLEAR     50  21  32 S20G28    29.92S
$$

AZZ023-231200-
GREATER PHOENIX AREA

CITY           SKY/WX    TMP DP  RH WIND       PRES   REMARKS
PHOENIX        PTCLDY    73  27  18 W7        29.73R
DEER VALLEY    CLEAR     66  24  20 S5        29.74R
SCOTTSDALE     CLEAR     71  26  18 SW3       29.76S
$$

AZZ027-028-231200-
SOUTHWEST MARICOPA COUNTY AND PINAL COUNTY

CITY           SKY/WX    TMP DP  RH WIND       PRES   REMARKS
CASA GRANDE    CLEAR     61  30  31 CALM      29.78S
$$

AZZ503-504-507>509-231200-
SOUTHEAST ARIZONA

CITY           SKY/WX    TMP DP  RH WIND       PRES   REMARKS
TUCSON         CLEAR     66  29  24 S7        29.85S
NOGALES        CLEAR     53  26  35 CALM      29.90S
SIERRA VISTA   PTCLDY    63  23  22 SW8       29.93R
SAFFORD        CLEAR     67  25  20 NW14      29.80S
$$

AZZ020-021-025-026-031-231200-
SOUTHWEST ARIZONA

CITY           SKY/WX    TMP DP  RH WIND       PRES   REMARKS
YUMA           CLEAR     66  31  27 NW3       29.77R
$$

CAZ031-033-041-043-047-048-061-231200-
SOUTHERN CALIFORNIA

CITY           SKY/WX    TMP DP  RH WIND       PRES   REMARKS
DOWNTOWN L.A.  CLEAR     58  49  72 VRB3      29.93S
L.A. AIRPORT   PTCLDY    58  49  72 NE7       29.93F
SAN DIEGO      MOCLDY    60  49  66 E5        29.94F
BURBANK        CLEAR     55  46  71 CALM      29.93S
ONTARIO        PTCLDY    54  48  80 W7        29.93R
RIVERSIDE      CLEAR     54  47  77 W5        29.93S
PALM SPRINGS   CLEAR     66  43  43 NW13      29.77S
EL CENTRO NAS  CLEAR     67  35  30 W18       29.76R
IMPERIAL       CLEAR     63  37  38 W8        29.76R
BLYTHE         PTCLDY    62  16  16 NW8       29.76S
$$

NVZ020-UTZ003-231200-
SOUTHERN NEVADA-UTAH

CITY           SKY/WX    TMP DP  RH WIND       PRES   REMARKS
LAS VEGAS      NOT AVBL
SALT LAKE CITY MOCLDY    42  36  79 W9        29.93R
$$

NMZ009-TXZ055-231200-
NEW MEXICO-WEST TEXAS

CITY           SKY/WX    TMP DP  RH WIND       PRES   REMARKS
ALBUQUERQUE    CLOUDY    59  29  31 SE3       29.84F
EL PASO        MOCLDY    74  23  15 W14G22    29.84R
$$


........................KEY........................
SKY/WX - SKY CONDITION/WEATHER
TMP    - TEMPERATURE IN FAHRENHEIT
DP     - DEW POINT IN FAHRENHEIT
RH     - RELATIVE HUMIDITY IN PERCENT
WIND   - DIRECTION AND SPEED IN MILES PER HOUR (MPH)
VRB    - VARIABLE WIND DIRECTION
PRES   - MEAN SEA LEVEL PRESSURE IN INCHES OF MERCURY
         F - FALLING PRESSURE   R - RISING PRESSURE
         S - STEADY PRESSURE
VSB    - VISIBILITY IN MILES
HX     - HEAT INDEX IN FAHRENHEIT
WCI    - WIND CHILL INDEX IN FAHRENHEIT
TC     - TEMPERATURE IN CELSIUS WHICH IS ALSO KNOWN AS
         TEMPERATURE IN CENTIGRADE
AFB    - AIR FORCE BASE
         LUKE AFB IS LUKE AIR FORCE BASE
         DAVIS-MONTHAN IS DAVIS-MONTHAN AIR FORCE BASE
NAS    - NAVAL AIR STATION
         EL CENTRO NAS IS EL CENTRO NAVAL AIR STATION
N/A    - NOT AVAILABLE



USA.gov is the U.S. government's official web portal to all federal, state and local government web resources and services.